| time (UTC) | temp C | wind direction | speed KPH | gust KPH | rain 1hr cm | rain 24hr cm | rain mn cm | humidity % | barometer mb |
| 20260507190008 | 21 | 360 | 8.0 | 19.3 | 0.00 | 0.08 | 0.00 | 30 | 1012.3 |
| 20260507184531 | 22 | 360 | 12.9 | 20.9 | 0.00 | 0.08 | 0.00 | 29 | 1012.6 |
| 20260507183013 | 21 | 360 | 14.5 | 17.7 | 0.00 | 0.08 | 0.00 | 30 | 1012.9 |
| 20260507181535 | 21 | 360 | 11.3 | 17.7 | 0.00 | 0.08 | 0.00 | 31 | 1013.1 |
| 20260507180022 | 21 | 360 | 11.3 | 19.3 | 0.00 | 0.10 | 0.00 | 30 | 1013.3 |
| 20260507174551 | 21 | 360 | 14.5 | 17.7 | 0.00 | 0.10 | 0.00 | 29 | 1013.5 |
| 20260507173028 | 21 | 360 | 11.3 | 16.1 | 0.00 | 0.10 | 0.00 | 30 | 1013.7 |
| 20260507171549 | 21 | 360 | 9.7 | 16.1 | 0.00 | 0.10 | 0.00 | 31 | 1014.0 |
| 20260507170025 | 20 | 360 | 12.9 | 20.9 | 0.00 | 0.23 | 0.00 | 33 | 1014.4 |
| 20260507164556 | 20 | 360 | 9.7 | 17.7 | 0.00 | 0.23 | 0.00 | 36 | 1014.4 |
| 20260507163023 | 19 | 360 | 11.3 | 19.3 | 0.00 | 0.23 | 0.00 | 38 | 1014.6 |
| 20260507161520 | 18 | 360 | 12.9 | 19.3 | 0.00 | 0.23 | 0.00 | 37 | 1014.8 |
| 20260507160030 | 17 | 360 | 14.5 | 19.3 | 0.00 | 0.23 | 0.00 | 41 | 1015.1 |
| 20260507154514 | 17 | 360 | 11.3 | 17.7 | 0.00 | 0.23 | 0.00 | 45 | 1015.1 |
| 20260507153047 | 16 | 360 | 12.9 | 20.9 | 0.00 | 0.23 | 0.00 | 42 | 1015.1 |
| 20260507151525 | 15 | 360 | 11.3 | 16.1 | 0.00 | 0.23 | 0.00 | 50 | 1015.4 |
| 20260507150022 | 14 | 360 | 11.3 | 17.7 | 0.00 | 0.28 | 0.00 | 52 | 1015.4 |
| 20260507144547 | 13 | 360 | 12.9 | 17.7 | 0.00 | 0.28 | 0.00 | 54 | 1015.5 |
| 20260507143030 | 12 | 360 | 8.0 | 16.1 | 0.00 | 0.28 | 0.00 | 62 | 1015.5 |
| 20260507141603 | 11 | 360 | 8.0 | 14.5 | 0.00 | 0.28 | 0.00 | 67 | 1015.5 |
| 20260507141502 | 11 | 360 | 9.7 | 14.5 | 0.00 | 0.28 | 0.00 | 67 | 1015.5 |
| 20260507140043 | 9 | 360 | 9.7 | 17.7 | 0.00 | 0.41 | 0.00 | 69 | 1015.7 |
| 20260507134527 | 8 | 360 | 9.7 | 17.7 | 0.00 | 0.41 | 0.00 | 73 | 1015.6 |
| 20260507133132 | 7 | 360 | 8.0 | 12.9 | 0.00 | 0.41 | 0.00 | 77 | 1015.7 |
| 20260507131548 | 6 | 360 | 8.0 | 12.9 | 0.00 | 0.41 | 0.00 | 80 | 1015.7 |
| 20260507130017 | 5 | 360 | 8.0 | 14.5 | 0.00 | 0.41 | 0.00 | 83 | 1015.6 |
| 20260507124539 | 3 | 360 | 8.0 | 14.5 | 0.00 | 0.41 | 0.00 | 85 | 1015.6 |
| 20260507123021 | 3 | 360 | 8.0 | 12.9 | 0.00 | 0.41 | 0.00 | 86 | 1015.7 |
| 20260507121611 | 2 | 360 | 8.0 | 12.9 | 0.00 | 0.41 | 0.00 | 86 | 1015.5 |
| 20260507120029 | 2 | 360 | 8.0 | 14.5 | 0.00 | 0.41 | 0.00 | 86 | 1015.6 |
| 20260507114510 | 2 | 360 | 6.4 | 9.7 | 0.00 | 0.41 | 0.00 | 86 | 1015.8 |
| 20260507113030 | 2 | 360 | 8.0 | 16.1 | 0.00 | 0.41 | 0.00 | 86 | 1016.0 |
| 20260507111507 | 2 | 360 | 8.0 | 16.1 | 0.00 | 0.41 | 0.00 | 87 | 1016.1 |
| 20260507110027 | 2 | 360 | 9.7 | 16.1 | 0.00 | 0.46 | 0.00 | 87 | 1016.3 |
| 20260507104506 | 2 | 360 | 8.0 | 12.9 | 0.00 | 0.46 | 0.00 | 87 | 1016.4 |
| 20260507103028 | 2 | 360 | 8.0 | 12.9 | 0.00 | 0.46 | 0.00 | 87 | 1016.5 |
| 20260507101514 | 2 | 360 | 9.7 | 16.1 | 0.00 | 0.46 | 0.00 | 88 | 1016.7 |
| 20260507100032 | 2 | 360 | 9.7 | 16.1 | 0.00 | 0.56 | 0.00 | 88 | 1017.0 |
| 20260507094508 | 3 | 360 | 11.3 | 16.1 | 0.00 | 0.56 | 0.00 | 88 | 1017.1 |
| 20260507093047 | 3 | 360 | 9.7 | 16.1 | 0.00 | 0.56 | 0.00 | 89 | 1017.1 |
| 20260507091509 | 2 | 360 | 8.0 | 17.7 | 0.00 | 0.56 | 0.00 | 90 | 1017.3 |
| 20260507090049 | 2 | 360 | 9.7 | 16.1 | 0.00 | 0.58 | 0.00 | 90 | 1017.4 |
| 20260507084531 | 2 | 360 | 8.0 | 16.1 | 0.00 | 0.58 | 0.00 | 91 | 1017.6 |
| 20260507083052 | 2 | 360 | 8.0 | 14.5 | 0.00 | 0.58 | 0.00 | 91 | 1017.8 |
| 20260507081533 | 2 | 360 | 8.0 | 14.5 | 0.00 | 0.58 | 0.00 | 91 | 1017.9 |
| 20260507080104 | 1 | 360 | 6.4 | 12.9 | 0.00 | 0.61 | 0.00 | 91 | 1018.1 |
| 20260507074532 | 1 | 360 | 6.4 | 12.9 | 0.00 | 0.61 | 0.00 | 91 | 1018.4 |
| 20260507073104 | 1 | 360 | 4.8 | 9.7 | 0.00 | 0.61 | 0.00 | 91 | 1018.6 |
| 20260507071531 | 1 | 360 | 6.4 | 8.0 | 0.00 | 0.61 | 0.00 | 91 | 1018.8 |
| 20260507070009 | 1 | 360 | 6.4 | 12.9 | 0.00 | 0.66 | 0.00 | 91 | 1019.0 |
| 20260507064543 | 1 | 360 | 6.4 | 9.7 | 0.00 | 0.66 | 0.00 | 91 | 1019.2 |
| 20260507063005 | 2 | 360 | 4.8 | 9.7 | 0.00 | 0.66 | 0.00 | 90 | 1019.4 |
| 20260507061559 | 2 | 360 | 4.8 | 8.0 | 0.00 | 0.66 | 0.00 | 90 | 1019.5 |
| 20260507061502 | 2 | 360 | 4.8 | 8.0 | 0.00 | 0.66 | 0.00 | 90 | 1019.5 |
| 20260507060037 | 2 | 360 | 3.2 | 9.7 | 0.00 | 0.81 | 0.66 | 91 | 1019.6 |
| 20260507054552 | 2 | 360 | 4.8 | 8.0 | 0.00 | 0.81 | 0.66 | 91 | 1019.9 |
| 20260507053035 | 2 | 360 | 4.8 | 6.4 | 0.00 | 0.81 | 0.66 | 91 | 1019.9 |
| 20260507051553 | 2 | 360 | 4.8 | 8.0 | 0.00 | 0.81 | 0.66 | 90 | 1020.1 |
| 20260507050034 | 3 | 360 | 4.8 | 8.0 | 0.00 | 1.07 | 0.66 | 90 | 1020.0 |
| 20260507044553 | 3 | 360 | 3.2 | 8.0 | 0.00 | 1.07 | 0.66 | 91 | 1020.1 |
| 20260507043040 | 3 | 360 | 1.6 | 6.4 | 0.00 | 1.07 | 0.66 | 91 | 1020.1 |
| 20260507041601 | 3 | 360 | 4.8 | 8.0 | 0.00 | 1.07 | 0.66 | 90 | 1020.5 |
| 20260507041502 | 3 | 360 | 4.8 | 8.0 | 0.00 | 1.07 | 0.66 | 90 | 1020.5 |
| 20260507040048 | 3 | 360 | 3.2 | 8.0 | 0.00 | 1.07 | 0.66 | 90 | 1020.6 |
| 20260507034516 | 3 | 360 | 4.8 | 6.4 | 0.00 | 1.07 | 0.66 | 90 | 1020.4 |
| 20260507033100 | 3 | 360 | 4.8 | 6.4 | 0.00 | 1.07 | 0.66 | 91 | 1020.6 |
| 20260507031520 | 3 | 360 | 1.6 | 4.8 | 0.00 | 1.07 | 0.66 | 90 | 1020.5 |
| 20260507030057 | 3 | 360 | 1.6 | 4.8 | 0.00 | 1.19 | 0.66 | 90 | 1020.5 |
| 20260507024524 | 3 | 360 | 0.0 | 3.2 | 0.00 | 1.19 | 0.66 | 89 | 1020.2 |
| 20260507023004 | 4 | 360 | 0.0 | 3.2 | 0.00 | 1.19 | 0.66 | 89 | 1020.4 |
| 20260507021530 | 4 | 360 | 0.0 | 3.2 | 0.00 | 1.19 | 0.66 | 88 | 1020.3 |
| 20260507020006 | 5 | 360 | 0.0 | 0.0 | 0.00 | 1.37 | 0.66 | 87 | 1020.2 |
| 20260507014547 | 5 | 360 | 0.0 | 0.0 | 0.00 | 1.37 | 0.66 | 86 | 1020.2 |
| 20260507013020 | 6 | 360 | 0.0 | 3.2 | 0.00 | 1.37 | 0.66 | 86 | 1020.1 |
| 20260507011549 | 6 | 360 | 1.6 | 4.8 | 0.00 | 1.37 | 0.66 | 86 | 1020.2 |
| 20260507010023 | 6 | 360 | 3.2 | 4.8 | 0.00 | 1.42 | 0.66 | 85 | 1020.2 |
| 20260507004559 | 6 | 360 | 3.2 | 8.0 | 0.00 | 1.42 | 0.66 | 85 | 1020.2 |
| 20260507003015 | 6 | 360 | 1.6 | 4.8 | 0.00 | 1.42 | 0.66 | 84 | 1020.1 |
| 20260507001552 | 6 | 360 | 3.2 | 8.0 | 0.00 | 1.42 | 0.66 | 85 | 1020.3 |
| 20260507000020 | 6 | 360 | 3.2 | 6.4 | 0.00 | 1.42 | 0.66 | 86 | 1020.1 |
| 20260506234504 | 6 | 360 | 3.2 | 6.4 | 0.03 | 1.42 | 0.66 | 87 | 1020.4 |
| 20260506233031 | 6 | 360 | 1.6 | 6.4 | 0.05 | 1.42 | 0.66 | 89 | 1020.4 |
| 20260506231559 | 6 | 360 | 3.2 | 8.0 | 0.08 | 1.42 | 0.66 | 91 | 1020.4 |
| 20260506230045 | 6 | 360 | 0.0 | 3.2 | 0.08 | 1.42 | 0.66 | 91 | 1020.4 |
| 20260506224517 | 5 | 360 | 0.0 | 4.8 | 0.05 | 1.42 | 0.64 | 89 | 1020.5 |
| 20260506223043 | 5 | 360 | 0.0 | 6.4 | 0.03 | 1.40 | 0.61 | 88 | 1020.7 |
| 20260506221518 | 6 | 360 | 4.8 | 9.7 | 0.00 | 1.37 | 0.58 | 86 | 1020.7 |
| 20260506220042 | 6 | 360 | 6.4 | 9.7 | 0.00 | 1.42 | 0.58 | 85 | 1020.6 |
| 20260506214540 | 6 | 360 | 3.2 | 6.4 | 0.00 | 1.42 | 0.58 | 85 | 1020.6 |
| 20260506213111 | 6 | 360 | 1.6 | 8.0 | 0.00 | 1.42 | 0.58 | 83 | 1020.8 |
| 20260506211524 | 7 | 360 | 1.6 | 6.4 | 0.00 | 1.42 | 0.58 | 84 | 1021.0 |
| 20260506210042 | 7 | 360 | 0.0 | 8.0 | 0.00 | 1.55 | 0.58 | 83 | 1021.1 |
| 20260506204544 | 7 | 360 | 1.6 | 9.7 | 0.00 | 1.55 | 0.58 | 82 | 1021.1 |
| 20260506203020 | 7 | 360 | 1.6 | 9.7 | 0.00 | 1.55 | 0.58 | 81 | 1021.1 |
| 20260506201555 | 6 | 360 | 1.6 | 8.0 | 0.00 | 1.55 | 0.58 | 84 | 1021.0 |
| 20260506200038 | 7 | 360 | 1.6 | 9.7 | 0.00 | 1.55 | 0.58 | 84 | 1021.1 |
| 20260506194509 | 7 | 360 | 1.6 | 8.0 | 0.00 | 1.55 | 0.58 | 86 | 1021.1 |
| 20260506193044 | 6 | 360 | 1.6 | 8.0 | 0.00 | 1.55 | 0.58 | 87 | 1021.1 |
| 20260506191556 | 6 | 360 | 3.2 | 6.4 | 0.00 | 1.55 | 0.58 | 87 | 1021.4 |